G1SCQ Weather Reports


time (UTC)temp
F
wind
direction
speed
knots
gust
knots
rain 1hr
in
rain 24hr
in
rain mn
in
humidity
%
barometer
mb
20260507141805 58 202 0.9 2.6 0.00 0.00 0.00 58 1015.9
20260507140905 58 211 0.9 2.6 0.00 0.00 0.00 59 1016.1
20260507140006 56 205 0.9 1.7 0.00 0.00 0.00 61 1016.1
20260507135405 57 306 0.0 1.7 0.00 0.00 0.00 61 1015.9
20260507134505 57 18 0.0 2.6 0.00 0.00 0.00 62 1016.1
20260507133605 57 6 0.9 3.5 0.00 0.00 0.00 66 1016.0
20260507132705 58 86 0.9 2.6 0.00 0.00 0.00 62 1016.1
20260507131805 59 65 0.9 3.5 0.00 0.00 0.00 66 1016.1
20260507130905 57 357 0.9 5.2 0.00 0.00 0.00 66 1016.2
20260507130005 59 40 0.9 1.7 0.00 0.00 0.00 66 1016.3
20260507125405 56 343 0.9 3.5 0.00 0.00 0.00 67 1016.2
20260507124505 56 344 0.9 5.2 0.00 0.00 0.00 71 1016.4
20260507123605 56 18 0.9 5.2 0.00 0.00 0.00 71 1016.2
20260507122706 57 16 0.9 3.5 0.00 0.00 0.00 69 1016.4
20260507121805 57 335 1.7 5.2 0.00 0.00 0.00 70 1016.4
20260507120904 55 336 1.7 5.2 0.00 0.00 0.00 73 1016.4
20260507120005 55 339 1.7 3.5 0.00 0.00 0.00 72 1016.6
20260507115405 55 332 1.7 6.1 0.00 0.00 0.00 72 1016.6
20260507114504 53 349 1.7 5.2 0.00 0.00 0.00 75 1016.7
20260507113605 52 336 1.7 5.2 0.00 0.00 0.00 75 1016.7
20260507112704 55 333 1.7 5.2 0.00 0.00 0.00 73 1016.6
20260507111804 55 349 1.7 5.2 0.00 0.00 0.00 70 1016.7
20260507110905 54 336 2.6 5.2 0.00 0.00 0.00 72 1016.8
20260507110005 54 334 1.7 3.5 0.00 0.00 0.00 72 1016.6
20260507105404 53 338 1.7 3.5 0.00 0.00 0.00 73 1017.1
20260507104505 53 337 1.7 6.1 0.00 0.00 0.00 73 1016.8
20260507103604 53 352 0.9 3.5 0.00 0.00 0.00 75 1017.0
20260507102705 51 344 1.7 5.2 0.00 0.00 0.00 75 1017.0
20260507101804 53 318 1.7 5.2 0.00 0.00 0.00 74 1017.0
20260507100905 52 308 1.7 3.5 0.00 0.00 0.00 72 1016.9
20260507100005 52 333 1.7 3.5 0.00 0.00 0.00 73 1016.9
20260507095404 51 322 1.7 3.5 0.00 0.00 0.00 75 1016.9
20260507094505 52 342 0.9 2.6 0.00 0.00 0.00 75 1016.8
20260507093604 51 321 0.9 3.5 0.00 0.00 0.00 75 1016.8
20260507092704 51 318 0.9 3.5 0.00 0.00 0.00 75 1016.9
20260507091804 53 295 1.7 5.2 0.00 0.00 0.00 74 1016.9
20260507090904 52 272 0.9 2.6 0.00 0.00 0.00 73 1016.8
20260507090005 51 267 0.0 1.7 0.00 0.00 0.00 74 1016.8
20260507085404 50 265 0.0 1.7 0.00 0.00 0.00 74 1017.0
20260507084504 50 216 0.9 1.7 0.00 0.00 0.00 75 1016.7
20260507083604 52 218 0.9 2.6 0.00 0.00 0.00 73 1016.8
20260507082705 52 213 0.9 2.6 0.00 0.00 0.00 72 1016.9
20260507081804 51 211 0.9 2.6 0.00 0.00 0.00 75 1016.9
20260507080904 51 189 0.0 1.7 0.00 0.00 0.00 75 1016.8
20260507080005 50 322 0.0 0.9 0.00 0.00 0.00 75 1016.8
20260507075405 50 181 0.0 0.9 0.00 0.00 0.00 77 1016.9
20260507074504 49 181 0.0 0.9 0.00 0.00 0.00 80 1016.3
20260507073604 49 187 0.0 2.6 0.00 0.00 0.00 80 1016.4
20260507072704 48 148 0.0 0.9 0.00 0.00 0.00 82 1016.3
20260507071804 48 115 0.0 1.7 0.00 0.00 0.00 82 1016.5
20260507070904 48 211 0.9 1.7 0.00 0.00 0.00 82 1016.4
20260507070008 47 203 0.9 2.6 0.00 0.00 0.00 84 1016.3
20260507065404 47 204 0.9 1.7 0.00 0.00 0.00 85 1016.5
20260507064504 46 192 0.9 2.6 0.00 0.00 0.00 87 1016.5
20260507063604 45 201 0.0 0.9 0.00 0.00 0.00 91 1016.3
20260507062704 44 215 0.9 3.5 0.00 0.00 0.00 97 1016.2
20260507061804 43 224 0.0 1.7 0.00 0.00 0.00 99 1016.5
20260507060904 42 0 0.0 0.0 0.00 0.00 0.00 99 1016.3
20260507060004 41 0 0.0 0.0 0.00 0.00 0.00 99 1016.4
20260507055404 41 0 0.0 0.0 0.00 0.00 0.00 99 1016.4
20260507054504 41 0 0.0 0.0 0.00 0.00 0.00 98 1016.0
20260507053604 41 0 0.0 0.0 0.00 0.00 0.00 99 1016.2
20260507052704 41 0 0.0 0.0 0.00 0.00 0.00 98 1016.2
20260507051804 40 0 0.0 0.0 0.00 0.00 0.00 99 1016.0
20260507050904 39 0 0.0 0.0 0.00 0.00 0.00 98 1016.0
20260507050005 38 0 0.0 0.0 0.00 0.00 0.00 98 1015.9
20260507045404 38 0 0.0 0.0 0.00 0.00 0.00 98 1015.9
20260507044504 39 0 0.0 0.0 0.00 0.00 0.00 98 1015.9
20260507043604 39 0 0.0 0.0 0.00 0.00 0.00 98 1015.9
20260507042704 39 0 0.0 0.0 0.00 0.00 0.00 98 1015.9
20260507041804 40 0 0.0 0.0 0.00 0.00 0.00 98 1015.9
20260507040904 40 0 0.0 0.0 0.00 0.00 0.00 98 1015.8
20260507040004 40 0 0.0 0.0 0.00 0.00 0.00 97 1015.7
20260507035404 40 0 0.0 0.0 0.00 0.00 0.00 97 1015.6
20260507034504 40 0 0.0 0.0 0.00 0.00 0.00 97 1015.7
20260507033604 41 0 0.0 0.0 0.00 0.00 0.00 97 1015.6
20260507032704 42 0 0.0 0.0 0.00 0.00 0.00 97 1015.6
20260507031803 42 0 0.0 0.0 0.00 0.00 0.00 97 1015.6
20260507030904 42 0 0.0 0.0 0.00 0.00 0.00 96 1015.6
20260507030004 42 0 0.0 0.0 0.00 0.00 0.00 96 1015.6
20260507025404 42 0 0.0 0.0 0.00 0.00 0.00 96 1015.7
20260507024503 42 0 0.0 0.0 0.00 0.00 0.00 95 1015.6
20260507023603 42 316 0.0 0.9 0.00 0.00 0.00 95 1015.6
20260507022704 42 0 0.0 0.0 0.00 0.00 0.00 94 1015.5
20260507021803 41 0 0.0 0.0 0.00 0.00 0.00 93 1015.3
20260507020904 42 0 0.0 0.0 0.00 0.00 0.00 93 1015.5
20260507020003 42 0 0.0 0.0 0.00 0.00 0.00 93 1015.3
20260507015403 43 0 0.0 0.0 0.00 0.00 0.00 93 1015.5
20260507014503 44 0 0.0 0.0 0.00 0.00 0.00 93 1015.3
20260507013604 44 0 0.0 0.0 0.00 0.00 0.00 92 1015.6
20260507012703 44 0 0.0 0.0 0.00 0.00 0.00 92 1015.3
20260507011803 44 0 0.0 0.0 0.00 0.00 0.00 92 1015.5
20260507010903 44 0 0.0 0.0 0.00 0.00 0.00 91 1015.5
20260507010003 44 0 0.0 0.0 0.00 0.00 0.00 91 1015.3
20260507005403 44 0 0.0 0.0 0.00 0.00 0.00 91 1015.5
20260507004503 45 0 0.0 0.0 0.00 0.00 0.00 91 1015.5
20260507003604 45 0 0.0 0.0 0.00 0.00 0.00 90 1015.5
20260507002703 45 0 0.0 0.0 0.00 0.00 0.00 90 1015.7
20260507001803 45 0 0.0 0.0 0.00 0.00 0.00 90 1015.7
20260507000903 45 0 0.0 0.0 0.00 0.00 0.00 90 1015.5
20260507000004 45 0 0.0 0.0 0.00 0.00 0.00 90 1015.7
20260506235403 45 0 0.0 0.0 0.00 0.00 0.00 90 1015.7
20260506234503 45 0 0.0 0.0 0.00 0.00 0.00 90 1015.7
20260506233604 45 0 0.0 0.0 0.00 0.00 0.00 90 1015.7
20260506232703 45 0 0.0 0.0 0.00 0.00 0.00 89 1015.8
20260506231803 45 0 0.0 0.0 0.00 0.00 0.00 89 1015.5
20260506230903 45 0 0.0 0.0 0.00 0.00 0.00 89 1015.7
20260506230004 45 1 0.0 0.9 0.00 0.00 0.00 88 1015.6
20260506225403 45 1 0.0 0.9 0.00 0.00 0.00 89 1015.5
20260506224503 45 0 0.0 0.0 0.00 0.00 0.00 89 1015.8
20260506223603 45 3 0.0 0.9 0.00 0.00 0.00 88 1015.7
20260506222703 45 48 0.0 0.9 0.00 0.00 0.00 88 1015.6
20260506221803 45 44 0.0 0.9 0.00 0.00 0.00 88 1015.6
20260506220903 45 20 0.0 0.9 0.00 0.00 0.00 88 1015.6
20260506220003 45 0 0.0 0.0 0.00 0.00 0.00 88 1015.6
20260506215403 45 0 0.0 0.0 0.00 0.00 0.00 89 1015.7
20260506214503 45 25 0.0 0.9 0.00 0.00 0.00 89 1015.7
20260506213603 45 29 0.0 0.9 0.00 0.00 0.00 89 1015.6
20260506212703 45 56 0.0 0.9 0.00 0.00 0.00 88 1015.6
20260506211805 45 18 0.0 0.9 0.00 0.00 0.00 89 1015.6
20260506210906 45 59 0.0 0.9 0.00 0.00 0.00 89 1015.5
20260506210006 45 40 0.0 1.7 0.00 0.00 0.00 90 1015.1
20260506205406 45 35 0.0 1.7 0.00 0.00 0.00 90 1015.2
20260506204506 45 56 0.0 1.7 0.00 0.00 0.00 90 1015.0
20260506203606 44 62 0.0 1.7 0.00 0.00 0.00 92 1015.2
20260506202706 45 88 0.0 0.9 0.00 0.00 0.00 92 1015.1
20260506201805 44 34 0.0 2.6 0.00 0.00 0.00 94 1015.3
20260506200905 44 51 0.0 0.9 0.00 0.00 0.00 94 1015.0
20260506200005 44 17 0.0 0.9 0.00 0.00 0.00 94 1014.9
20260506195405 44 354 0.0 0.9 0.00 0.00 0.00 94 1014.9
20260506194505 44 54 0.0 3.5 0.00 0.00 0.00 94 1015.0
20260506193605 44 9 0.0 3.5 0.00 0.00 0.00 95 1014.7
20260506192706 44 53 0.9 5.2 0.00 0.00 0.00 95 1014.7
20260506191806 44 72 0.9 1.7 0.00 0.00 0.00 95 1014.8
20260506190906 44 57 0.9 5.2 0.00 0.00 0.00 95 1014.6
20260506190006 44 79 0.9 3.5 0.00 0.00 0.00 96 1014.5
20260506185405 44 77 0.0 3.5 0.00 0.00 0.00 96 1014.6
20260506184505 44 63 0.9 2.6 0.00 0.00 0.00 96 1014.6
20260506183605 44 63 0.0 1.7 0.00 0.00 0.00 96 1014.5
20260506182705 44 72 0.9 2.6 0.00 0.00 0.00 96 1014.5
20260506181805 44 86 0.9 8.7 0.00 0.00 0.00 96 1014.4
20260506180905 44 83 0.9 8.7 0.00 0.00 0.00 96 1014.4
20260506180006 45 65 0.0 6.1 0.00 0.00 0.00 96 1014.2
20260506175405 45 87 0.0 2.6 0.00 0.00 0.00 96 1014.0
20260506174505 44 69 0.0 3.5 0.00 0.00 0.00 97 1014.0
20260506173605 45 82 0.9 3.5 0.00 0.00 0.00 96 1013.9
20260506172705 45 84 0.9 5.2 0.00 0.00 0.00 97 1013.8
20260506171805 45 42 0.9 2.6 0.00 0.00 0.00 97 1013.8
20260506170905 45 25 0.0 3.5 0.00 0.00 0.00 97 1014.0
20260506170005 45 64 0.0 3.5 0.00 0.00 0.00 96 1013.9
20260506165405 46 75 0.0 1.7 0.00 0.00 0.00 95 1013.9
20260506164505 46 130 0.0 2.6 0.00 0.00 0.00 95 1013.9
20260506163605 46 60 0.9 6.1 0.00 0.00 0.00 95 1013.8
20260506162705 46 79 0.9 2.6 0.00 0.00 0.00 94 1013.8
20260506161805 47 79 0.9 2.6 0.00 0.00 0.00 94 1013.6
20260506160905 47 83 0.9 2.6 0.00 0.00 0.00 93 1013.6
20260506160005 47 56 0.9 5.2 0.00 0.00 0.00 92 1013.7
20260506155405 47 54 0.9 7.0 0.00 0.00 0.00 92 1013.8
20260506154505 48 33 0.9 5.2 0.00 0.00 0.00 91 1013.8
20260506153605 48 39 0.9 6.1 0.00 0.00 0.00 92 1013.8
20260506152705 48 58 0.9 5.2 0.00 0.00 0.00 91 1013.8
20260506151805 48 75 0.9 6.1 0.00 0.00 0.00 91 1013.6
20260506150905 48 85 0.9 7.0 0.00 0.00 0.00 92 1013.6
20260506150005 48 53 0.9 3.5 0.00 0.00 0.00 91 1013.7
20260506145405 48 83 0.9 1.7 0.00 0.00 0.00 91 1013.6
20260506144505 48 53 0.9 5.2 0.00 0.00 0.00 91 1013.6
20260506143605 49 68 0.9 3.5 0.00 0.00 0.00 90 1013.6
20260506142705 49 50 0.9 2.6 0.00 0.00 0.00 90 1013.4